When you browse on this site, cookies collect data to enhance your experience and personalize the content and advertising you see.
Visit our Privacy Policy to learn more. By continuing to use the site, you agree to this use of cookies and data.
  • en France
  • Liste des pays
  • À 7 jours
  • Température de l'eau
  • Carte satellitaire
  • Carte météo
  • Widgets météo
  • user-avatar
    Se connecter

    Météo par heure à Pamporovo

    Ce jour, 27 Mai, Lundi

    Heure Température Précipitation Vent Pression Humidité
    00:00 +10°C° 0 mm 1 m/s 626 mmHg 94%
    01:00 +9°C° 0 mm 1 m/s 625 mmHg 93%
    02:00 +9°C° 0 mm 1 m/s 625 mmHg 93%
    03:00 +9°C° 0 mm 1 m/s 625 mmHg 93%
    04:00 +9°C° 0 mm 1 m/s 625 mmHg 93%
    05:00 +9°C° 0 mm 1 m/s 625 mmHg 93%
    06:00 +10°C° 0 mm 1 m/s 626 mmHg 87%
    07:00 +12°C° 0 mm 1 m/s 626 mmHg 81%
    08:00 +14°C° 0 mm 1 m/s 627 mmHg 75%
    09:00 +16°C° 0 mm 2 m/s 628 mmHg 66%
    10:00 +17°C° 0 mm 2 m/s 628 mmHg 57%
    11:00 +18°C° 0 mm 3 m/s 629 mmHg 47%
    12:00 +19°C° 0 mm 3 m/s 629 mmHg 47%
    13:00 +19°C° 0 mm 3 m/s 629 mmHg 46%
    14:00 +19°C° 0 mm 3 m/s 629 mmHg 45%
    15:00 +18°C° 0 mm 3 m/s 628 mmHg 48%
    16:00 +17°C° 0 mm 2 m/s 627 mmHg 52%
    17:00 +17°C° 0 mm 2 m/s 627 mmHg 55%
    18:00 +15°C° 0 mm 2 m/s 626 mmHg 62%
    19:00 +13°C° 0 mm 2 m/s 625 mmHg 69%
    20:00 +11°C° 0 mm 1 m/s 624 mmHg 76%
    21:00 +10°C° 0 mm 1 m/s 624 mmHg 72%
    22:00 +9°C° 0 mm 2 m/s 624 mmHg 69%
    23:00 +8°C° 0 mm 2 m/s 623 mmHg 66%

    Demain, 28 Mai, Mardi

    Heure Température Précipitation Vent Pression Humidité
    00:00 +8°C° 0 mm 2 m/s 623 mmHg 63%
    01:00 +9°C° 0 mm 1 m/s 623 mmHg 60%
    02:00 +8°C° 0 mm 1 m/s 623 mmHg 57%
    03:00 +8°C° 0 mm 1 m/s 623 mmHg 57%
    04:00 +8°C° 0 mm 1 m/s 622 mmHg 58%
    05:00 +8°C° 0 mm 1 m/s 622 mmHg 58%
    06:00 +9°C° 0 mm 2 m/s 623 mmHg 56%
    07:00 +13°C° 0 mm 2 m/s 624 mmHg 54%
    08:00 +14°C° 0 mm 3 m/s 625 mmHg 52%
    09:00 +15°C° 0 mm 4 m/s 625 mmHg 50%
    10:00 +16°C° 0 mm 5 m/s 625 mmHg 47%
    11:00 +17°C° 0 mm 5 m/s 625 mmHg 45%
    12:00 +17°C° 0 mm 6 m/s 625 mmHg 45%
    13:00 +17°C° 0 mm 6 m/s 625 mmHg 45%
    14:00 +17°C° 0 mm 6 m/s 624 mmHg 46%
    15:00 +17°C° 0 mm 5 m/s 624 mmHg 48%
    16:00 +16°C° 0 mm 5 m/s 623 mmHg 50%
    17:00 +15°C° 0 mm 4 m/s 623 mmHg 52%
    18:00 +13°C° 0 mm 3 m/s 622 mmHg 64%
    19:00 +11°C° 0 mm 3 m/s 621 mmHg 76%
    20:00 +9°C° 0 mm 2 m/s 621 mmHg 89%
    21:00 +8°C° 0 mm 2 m/s 621 mmHg 89%
    22:00 +8°C° 0 mm 2 m/s 621 mmHg 90%
    23:00 +7°C° 0 mm 2 m/s 621 mmHg 91%

    Après-demain, 29 Mai, Mercredi

    Heure Température Précipitation Vent Pression Humidité
    00:00 +7°C° 0 mm 2 m/s 621 mmHg 90%
    01:00 +7°C° 0 mm 2 m/s 621 mmHg 89%
    02:00 +7°C° 0 mm 2 m/s 621 mmHg 88%
    03:00 +8°C° 0 mm 1 m/s 621 mmHg 87%
    04:00 +8°C° 0 mm 1 m/s 621 mmHg 86%
    05:00 +8°C° 0 mm 1 m/s 621 mmHg 85%
    06:00 +10°C° 0 mm 1 m/s 622 mmHg 76%
    07:00 +13°C° 0 mm 1 m/s 624 mmHg 68%
    08:00 +15°C° 0 mm 1 m/s 625 mmHg 60%
    09:00 +18°C° 0 mm 1 m/s 625 mmHg 56%
    10:00 +18°C° 0 mm 2 m/s 626 mmHg 53%
    11:00 +19°C° 0 mm 2 m/s 627 mmHg 49%
    12:00 +19°C° 0.2 mm 2 m/s 626 mmHg 52%
    13:00 +18°C° 0.2 mm 2 m/s 626 mmHg 55%
    14:00 +18°C° 0.2 mm 3 m/s 626 mmHg 57%
    15:00 +18°C° 0.5 mm 3 m/s 625 mmHg 61%
    16:00 +17°C° 0.5 mm 3 m/s 625 mmHg 64%
    17:00 +17°C° 0.5 mm 3 m/s 625 mmHg 67%
    18:00 +15°C° 0.4 mm 2 m/s 624 mmHg 76%
    19:00 +13°C° 0.4 mm 2 m/s 624 mmHg 85%
    20:00 +11°C° 0.4 mm 1 m/s 623 mmHg 94%
    21:00 +11°C° 0 mm 1 m/s 623 mmHg 94%
    22:00 +10°C° 0 mm 1 m/s 623 mmHg 94%
    23:00 +8°C° 0 mm 2 m/s 623 mmHg 94%

    30 Mai, Jeudi

    Heure Température Précipitation Vent Pression Humidité
    00:00 +9°C° 0 mm 1 m/s 623 mmHg 92%
    01:00 +9°C° 0 mm 1 m/s 623 mmHg 90%
    02:00 +9°C° 0 mm 1 m/s 623 mmHg 88%
    03:00 +8°C° 0 mm 1 m/s 623 mmHg 87%
    04:00 +8°C° 0 mm 1 m/s 623 mmHg 86%
    05:00 +8°C° 0 mm 1 m/s 623 mmHg 85%
    06:00 +11°C° 0 mm 1 m/s 624 mmHg 78%
    07:00 +13°C° 0 mm 1 m/s 625 mmHg 71%
    08:00 +15°C° 0 mm 0 m/s 626 mmHg 64%
    09:00 +16°C° 0.3 mm 1 m/s 626 mmHg 63%
    10:00 +18°C° 0.3 mm 1 m/s 626 mmHg 63%
    11:00 +17°C° 0.3 mm 2 m/s 626 mmHg 63%
    12:00 +17°C° 0.8 mm 2 m/s 626 mmHg 64%
    13:00 +17°C° 0.8 mm 2 m/s 626 mmHg 65%
    14:00 +17°C° 0.8 mm 2 m/s 626 mmHg 66%
    15:00 +17°C° 0.7 mm 2 m/s 625 mmHg 67%
    16:00 +17°C° 0.7 mm 2 m/s 625 mmHg 69%
    17:00 +16°C° 0.7 mm 2 m/s 625 mmHg 71%
    18:00 +14°C° 0.4 mm 2 m/s 624 mmHg 79%
    19:00 +12°C° 0.4 mm 1 m/s 623 mmHg 87%
    20:00 +10°C° 0.4 mm 1 m/s 623 mmHg 94%
    21:00 +10°C° 0.2 mm 1 m/s 623 mmHg 94%
    22:00 +9°C° 0.2 mm 1 m/s 623 mmHg 95%
    23:00 +9°C° 0.2 mm 1 m/s 623 mmHg 95%

    31 Mai, Vendredi

    Heure Température Précipitation Vent Pression Humidité
    00:00 +9°C° 0.1 mm 1 m/s 623 mmHg 94%
    01:00 +8°C° 0.1 mm 1 m/s 622 mmHg 93%
    02:00 +8°C° 0.1 mm 1 m/s 622 mmHg 92%
    03:00 +8°C° 0.2 mm 1 m/s 622 mmHg 93%
    04:00 +8°C° 0.2 mm 1 m/s 622 mmHg 93%
    05:00 +8°C° 0.2 mm 1 m/s 622 mmHg 93%
    06:00 +9°C° 0.8 mm 1 m/s 622 mmHg 91%
    07:00 +11°C° 0.8 mm 1 m/s 623 mmHg 89%
    08:00 +12°C° 0.8 mm 1 m/s 624 mmHg 86%
    09:00 +12°C° 1.1 mm 1 m/s 624 mmHg 84%
    10:00 +13°C° 1.1 mm 1 m/s 624 mmHg 83%
    11:00 +14°C° 1.1 mm 1 m/s 624 mmHg 81%
    12:00 +14°C° 1.2 mm 1 m/s 624 mmHg 78%
    13:00 +14°C° 1.2 mm 2 m/s 624 mmHg 75%
    14:00 +15°C° 1.2 mm 2 m/s 624 mmHg 72%
    15:00 +14°C° 1.1 mm 1 m/s 624 mmHg 73%
    16:00 +14°C° 1.1 mm 1 m/s 623 mmHg 75%
    17:00 +14°C° 1.1 mm 1 m/s 623 mmHg 76%
    18:00 +12°C° 0.9 mm 1 m/s 622 mmHg 81%
    19:00 +9°C° 0.9 mm 0 m/s 622 mmHg 86%
    20:00 +7°C° 0.9 mm 0 m/s 621 mmHg 91%
    21:00 +8°C° 0.3 mm 1 m/s 621 mmHg 92%
    22:00 +7°C° 0.3 mm 1 m/s 621 mmHg 93%
    23:00 +7°C° 0.3 mm 1 m/s 621 mmHg 94%

    1 Juin, Samedi

    Heure Température Précipitation Vent Pression Humidité
    00:00 +7°C° 0 mm 1 m/s 621 mmHg 94%
    01:00 +6°C° 0 mm 1 m/s 621 mmHg 95%
    02:00 +6°C° 0 mm 1 m/s 620 mmHg 95%
    03:00 +6°C° 0 mm 1 m/s 620 mmHg 95%
    04:00 +6°C° 0 mm 1 m/s 620 mmHg 95%
    05:00 +6°C° 0 mm 1 m/s 620 mmHg 95%
    06:00 +8°C° 0.1 mm 1 m/s 621 mmHg 90%
    07:00 +10°C° 0.1 mm 1 m/s 622 mmHg 86%
    08:00 +12°C° 0.1 mm 1 m/s 623 mmHg 81%
    09:00 +12°C° 0.5 mm 1 m/s 623 mmHg 79%
    10:00 +13°C° 0.5 mm 1 m/s 623 mmHg 77%
    11:00 +14°C° 0.5 mm 1 m/s 623 mmHg 76%
    12:00 +13°C° 1.7 mm 1 m/s 623 mmHg 78%
    13:00 +13°C° 1.7 mm 1 m/s 623 mmHg 80%
    14:00 +13°C° 1.7 mm 1 m/s 622 mmHg 83%
    15:00 +12°C° 1.8 mm 1 m/s 622 mmHg 85%
    16:00 +12°C° 1.8 mm 1 m/s 622 mmHg 86%
    17:00 +11°C° 1.8 mm 1 m/s 621 mmHg 88%
    18:00 +10°C° 1.8 mm 1 m/s 621 mmHg 90%
    19:00 +9°C° 1.8 mm 1 m/s 621 mmHg 91%
    20:00 +8°C° 1.8 mm 1 m/s 621 mmHg 93%
    21:00 +8°C° 1.7 mm 1 m/s 621 mmHg 94%
    22:00 +8°C° 1.7 mm 1 m/s 621 mmHg 95%
    23:00 +8°C° 1.7 mm 1 m/s 621 mmHg 96%
    Voir plus